GW1675 Weather Reports


time (UTC)temp
C
wind
direction
speed
KPH
gust
KPH
rain 1hr
cm
rain 24hr
cm
rain mn
cm
humidity
%
barometer
mb
20260503014600 14 0 0.0 0.0 0.00 0.00 0.00 78 1017.6
20260503013042 15 0 0.0 3.2 0.00 0.00 0.00 78 1017.6
20260503011552 15 178 3.2 4.8 0.00 0.00 0.00 78 1017.8
20260503010055 15 178 0.0 1.6 0.00 0.00 0.00 78 1017.8
20260503004546 15 0 0.0 4.8 0.00 0.00 0.00 78 1018.0
20260503003055 15 178 0.0 3.2 0.00 0.00 0.00 78 1018.2
20260503001543 15 0 1.6 8.0 0.00 0.00 0.00 78 1018.3
20260503000042 15 178 3.2 6.4 0.00 0.00 0.00 78 1018.5
20260502234544 15 178 3.2 4.8 0.00 0.00 0.00 77 1018.3
20260502233049 15 178 3.2 4.8 0.00 0.00 0.00 77 1018.3
20260502231545 -17 0.0 0.0 0.00 0.00 0.00 1018.3
20260502230046 16 0.0 0.0 0.00 0.00 0.00 76 1018.2
20260502224544 16 178 1.6 6.4 0.00 0.00 0.00 76 1018.2
20260502223044 16 178 3.2 6.4 0.00 0.00 0.00 76 1018.0
20260502221541 16 178 3.2 4.8 0.00 0.00 0.00 76 1018.1
20260502220048 16 178 3.2 8.0 0.00 0.00 0.00 75 1018.2
20260502214552 16 178 4.8 6.4 0.00 0.00 0.00 75 1018.3
20260502213047 16 178 1.6 6.4 0.00 0.00 0.00 75 1018.2
20260502211547 16 178 3.2 8.0 0.00 0.00 0.00 74 1017.9
20260502210043 17 178 3.2 8.0 0.00 0.00 0.00 74 1017.9
20260502204602 17 178 4.8 9.7 0.00 0.00 0.00 74 1017.8
20260502203108 17 178 3.2 9.7 0.00 0.00 0.00 73 1017.7
20260502201545 17 178 3.2 8.0 0.00 0.00 0.00 73 1017.5
20260502200045 17 178 4.8 9.7 0.00 0.00 0.00 73 1017.5
20260502194544 17 178 3.2 11.3 0.00 0.00 0.00 72 1017.4
20260502193041 18 178 4.8 17.7 0.00 0.00 0.00 72 1017.1
20260502191556 18 178 6.4 16.1 0.00 0.00 0.00 72 1017.1
20260502190047 18 177 8.0 17.7 0.00 0.00 0.00 71 1017.2
20260502184545 19 178 11.3 19.3 0.00 0.00 0.00 71 1017.1
20260502183044 20 176 11.3 19.3 0.00 0.00 0.00 71 1017.1
20260502181603 20 176 11.3 19.3 0.00 0.00 0.00 71 1017.2
20260502163050 21 163 14.5 24.1 0.00 0.00 0.00 71 1017.5
20260502161549 21 158 12.9 24.1 0.00 0.00 0.00 71 1017.3
20260502151600 21 145 12.9 19.3 0.00 0.00 0.00 72 1018.0
20260502123045 20 138 9.7 12.9 0.00 0.00 0.00 73 1019.4
20260502121544 20 138 4.8 9.7 0.00 0.00 0.00 73 1019.5
20260502114550 19 162 6.4 12.9 0.00 0.00 0.00 73 1019.8
20260502113043 19 162 4.8 14.5 0.00 0.00 0.00 73 1019.8
20260502111544 20 163 12.9 19.3 0.00 0.00 0.00 74 1020.0
20260502110046 20 162 9.7 14.5 0.00 0.00 0.00 74 1020.1
20260502104551 20 163 1.6 11.3 0.00 0.00 0.00 74 1020.3
20260502103047 18 162 3.2 11.3 0.00 0.00 0.00 74 1020.3
20260502101549 18 162 3.2 8.0 0.00 0.00 0.00 74 1020.4
20260502070044 15 0 0.0 0.0 0.00 0.00 0.00 73 1019.8
20260502064558 15 0 0.0 0.0 0.00 0.00 0.00 72 1019.7
20260502063045 15 0 0.0 0.0 0.00 0.00 0.00 72 1019.6
20260502061547 15 0 0.0 0.0 0.00 0.00 0.00 72 1019.3
20260502060048 15 0 0.0 1.6 0.00 0.00 0.00 72 1019.5
20260502054558 15 0 0.0 0.0 0.00 0.00 0.00 72 1019.5
20260502053046 15 0 0.0 0.0 0.00 0.00 0.00 72 1019.4
20260502051544 16 0 0.0 0.0 0.00 0.00 0.00 72 1019.1
20260502050051 16 0 0.0 0.0 0.00 0.00 0.00 72 1019.2
20260502044550 16 0 0.0 0.0 0.00 0.00 0.00 72 1019.4
20260502043050 16 0 0.0 0.0 0.00 0.00 0.00 72 1019.4
20260502041546 15 0 0.0 0.0 0.00 0.00 0.00 72 1019.3
20260502040054 16 0 0.0 0.0 0.00 0.00 0.00 72 1019.4
20260502034544 16 0 0.0 0.0 0.00 0.00 0.00 72 1019.2
20260502033048 16 0 0.0 0.0 0.00 0.00 0.00 71 1019.4
20260502031555 16 0 0.0 0.0 0.00 0.00 0.00 71 1019.4
20260502030043 16 0 0.0 0.0 0.00 0.00 0.00 71 1019.4
20260502024545 16 0 0.0 0.0 0.00 0.00 0.00 71 1019.5
20260502023049 16 0 0.0 0.0 0.00 0.00 0.00 71 1019.5
20260502021544 16 0 0.0 0.0 0.00 0.00 0.00 71 1019.5
20260502020108 16 0 0.0 0.0 0.00 0.00 0.00 71 1019.8